FW5717 Weather Reports


Display with metric or nautical units.
time (UTC)temp
F
wind
direction
speed
MPH
gust
MPH
rain 1hr
in
rain 24hr
in
rain mn
in
humidity
%
barometer
mb
20260505024533 61 0.0 0.0 0.00 0.00 0.00 44 1005.7
20260505023030 62 0.0 0.0 0.00 0.00 0.00 42 1005.6
20260505021533 63 0.0 0.0 0.00 0.00 0.00 40 1005.6
20260505020032 63 0.0 0.0 0.00 0.00 0.00 40 1005.5
20260505014531 64 0.0 0.0 0.00 0.00 0.00 40 1005.6
20260505013035 64 0.0 0.0 0.00 0.00 0.00 39 1005.5
20260505011553 65 0.0 0.0 0.00 0.00 0.00 40 1005.6
20260505010030 65 0.0 0.0 0.00 0.00 0.00 36 1005.6
20260505004530 65 0.0 0.0 0.00 0.00 0.00 39 1005.7
20260505003030 66 0.0 0.0 0.00 0.00 0.00 35 1005.9
20260505001534 66 0.0 0.0 0.00 0.00 0.00 35 1006.1
20260505000038 67 0.0 0.0 0.00 0.00 0.00 37 1006.1
20260504234533 67 0.0 0.0 0.00 0.00 0.00 37 1006.3
20260504233034 67 0.0 0.0 0.00 0.00 0.00 39 1006.7
20260504231533 64 0.0 0.0 0.00 0.00 0.00 44 1006.7
20260504230033 62 0.0 0.0 0.00 0.00 0.00 50 1007.0
20260504224533 60 0.0 0.0 0.00 0.00 0.00 51 1007.2
20260504223033 60 0.0 0.0 0.00 0.00 0.00 51 1006.9
20260504221529 62 0.0 0.0 0.00 0.00 0.00 49 1007.0
20260504220030 66 0.0 0.0 0.00 0.00 0.00 40 1006.6
20260504214534 68 0.0 0.0 0.00 0.00 0.00 31 1006.6
20260504213034 72 0.0 0.0 0.00 0.00 0.00 27 1006.2
20260504211531 73 0.0 0.0 0.00 0.00 0.00 25 1006.2
20260504210031 74 0.0 0.0 0.00 0.00 0.00 26 1006.4
20260504204532 74 0.0 0.0 0.00 0.00 0.00 26 1006.5
20260504203033 75 0.0 0.0 0.00 0.00 0.00 25 1006.5
20260504201532 76 0.0 0.0 0.00 0.00 0.00 24 1006.6
20260504200032 77 0.0 0.0 0.00 0.00 0.00 23 1006.8
20260504194532 78 0.0 0.0 0.00 0.00 0.00 23 1006.9
20260504193031 78 0.0 0.0 0.00 0.00 0.00 23 1007.0
20260504191532 80 0.0 0.0 0.00 0.00 0.00 20 1007.0
20260504190034 79 0.0 0.0 0.00 0.00 0.00 21 1007.2
20260504184533 79 0.0 0.0 0.00 0.00 0.00 21 1007.4
20260504183033 78 0.0 0.0 0.00 0.00 0.00 24 1007.5
20260504181529 77 0.0 0.0 0.00 0.00 0.00 24 1007.7
20260504180034 75 0.0 0.0 0.00 0.00 0.00 26 1008.0
20260504174533 73 0.0 0.0 0.00 0.00 0.00 27 1008.1
20260504173032 72 0.0 0.0 0.00 0.00 0.00 29 1008.1
20260504171544 71 0.0 0.0 0.00 0.00 0.00 32 1008.3
20260504081531 54 0.0 0.0 0.00 0.00 0.00 34 1008.8
20260504044533 57 0.0 0.0 0.00 0.00 0.00 33 1009.2
20260504043043 58 0.0 0.0 0.00 0.00 0.00 33 1009.2
20260504041535 59 0.0 0.0 0.00 0.00 0.00 32 1009.1
20260504040032 59 0.0 0.0 0.00 0.00 0.00 33 1009.1
20260504034534 60 0.0 0.0 0.00 0.00 0.00 32 1009.1
20260504033037 61 0.0 0.0 0.00 0.00 0.00 30 1009.1
20260504031535 62 0.0 0.0 0.00 0.00 0.00 30 1009.0
20260504030034 63 0.0 0.0 0.00 0.00 0.00 30 1009.0